FW9110 Weather Reports


time (UTC)temp
C
wind
direction
speed
KPH
gust
KPH
rain 1hr
cm
rain 24hr
cm
rain mn
cm
humidity
%
barometer
mb
20260504050352 5 301 0.0 0.0 0.00 0.00 0.00 82 1014.8
20260504045849 4 301 0.0 0.0 0.00 0.00 0.00 82 1015.0
20260504045344 4 301 0.0 0.0 0.00 0.00 0.00 83 1014.8
20260504044841 4 301 0.0 0.0 0.00 0.00 0.00 82 1014.9
20260504044338 4 301 0.0 0.0 0.00 0.00 0.00 81 1014.6
20260504043836 5 300 0.0 0.0 0.00 0.00 0.00 81 1014.6
20260504043332 5 301 0.0 0.0 0.00 0.00 0.00 80 1014.8
20260504042830 5 301 0.0 0.0 0.00 0.00 0.00 81 1014.6
20260504042326 5 301 0.0 0.0 0.00 0.00 0.00 82 1014.8
20260504041823 5 301 0.0 0.0 0.00 0.00 0.00 82 1014.6
20260504041319 5 301 0.0 0.0 0.00 0.00 0.00 82 1014.5
20260504040815 5 300 0.0 0.0 0.00 0.00 0.00 80 1014.7
20260504040313 5 301 0.0 0.0 0.00 0.00 0.00 80 1014.5
20260504035808 5 301 0.0 0.0 0.00 0.00 0.00 80 1014.7
20260504035306 5 301 0.0 0.0 0.00 0.00 0.00 79 1014.6
20260504034803 5 301 0.0 0.0 0.00 0.00 0.00 79 1014.4
20260504034301 5 301 0.0 0.0 0.00 0.00 0.00 79 1014.4
20260504033758 5 301 0.0 0.0 0.00 0.00 0.00 79 1014.4
20260504033255 5 301 0.0 0.0 0.00 0.00 0.00 79 1014.3
20260504032752 5 301 0.0 0.0 0.00 0.00 0.00 79 1014.4
20260504032249 5 300 0.0 0.0 0.00 0.00 0.00 79 1014.3
20260504031745 5 301 0.0 0.0 0.00 0.00 0.00 78 1014.3
20260504031243 5 301 0.0 0.0 0.00 0.00 0.00 77 1014.4
20260504030738 5 301 0.0 0.0 0.00 0.00 0.00 76 1014.1
20260504030236 5 301 0.0 0.0 0.00 0.00 0.00 76 1014.3
20260504025732 6 301 0.0 0.0 0.00 0.00 0.00 75 1014.3
20260504025229 6 301 0.0 0.0 0.00 0.00 0.00 74 1014.0
20260504024726 6 301 0.0 0.0 0.00 0.00 0.00 73 1014.3
20260504024222 6 301 0.0 0.0 0.00 0.00 0.00 72 1014.2
20260504023714 6 301 0.0 0.0 0.00 0.00 0.00 73 1014.2
20260504023210 6 300 0.0 0.0 0.00 0.00 0.00 74 1014.1
20260504022706 6 300 0.0 0.0 0.00 0.00 0.00 73 1014.1
20260504022202 6 300 0.0 0.0 0.00 0.00 0.00 72 1014.2
20260504021700 6 300 0.0 0.0 0.00 0.00 0.00 71 1014.1
20260504021156 6 301 0.0 0.0 0.00 0.00 0.00 70 1014.0
20260504020654 6 300 0.0 0.0 0.00 0.00 0.00 70 1014.1
20260504020149 6 300 0.0 0.0 0.00 0.00 0.00 70 1014.2
20260504015647 6 300 0.0 0.0 0.00 0.00 0.00 68 1014.2
20260504015143 7 301 0.0 0.0 0.00 0.00 0.00 68 1014.0
20260504014638 7 301 0.0 0.0 0.00 0.00 0.00 67 1014.1
20260504014136 7 300 0.0 0.0 0.00 0.00 0.00 68 1014.0
20260504013634 7 300 0.0 0.0 0.00 0.00 0.00 66 1014.0
20260504013130 7 300 0.0 0.0 0.00 0.00 0.00 65 1013.9
20260504012627 7 300 0.0 0.0 0.00 0.00 0.00 64 1013.9
20260504012126 7 300 0.0 0.0 0.00 0.00 0.00 64 1013.8
20260504011622 8 300 0.0 0.0 0.00 0.00 0.00 62 1014.0
20260504011118 8 300 0.0 0.0 0.00 0.00 0.00 62 1013.7
20260504010614 8 300 0.0 0.0 0.00 0.00 0.00 59 1013.6
20260504010110 8 300 0.0 0.0 0.00 0.00 0.00 58 1013.9
20260504005607 9 300 0.0 0.0 0.00 0.00 0.00 58 1013.5
20260504005104 9 300 0.0 0.0 0.00 0.00 0.00 57 1013.8
20260504004602 9 300 0.0 0.0 0.00 0.00 0.00 56 1013.6
20260504004059 10 300 0.0 0.0 0.00 0.00 0.00 54 1013.5
20260504003555 10 300 0.0 0.0 0.00 0.00 0.00 53 1013.6
20260504003052 10 300 0.0 0.0 0.00 0.00 0.00 51 1013.4
20260504002549 11 300 0.0 0.0 0.00 0.00 0.00 49 1013.3
20260504002047 11 300 0.0 0.0 0.00 0.00 0.00 48 1013.2
20260504001544 12 298 0.0 0.0 0.00 0.00 0.00 45 1013.3
20260504001040 12 292 0.0 0.0 0.00 0.00 0.00 43 1013.2
20260504000537 12 306 0.0 0.0 0.00 0.00 0.00 44 1013.2
20260504000035 12 306 0.0 0.0 0.00 0.00 0.00 41 1013.2
20260503235533 13 306 0.0 0.0 0.00 0.00 0.00 39 1013.1
20260503235029 13 306 0.0 0.0 0.00 0.00 0.00 40 1013.1
20260503234527 14 306 0.0 0.0 0.00 0.00 0.00 37 1012.8
20260503234025 14 307 0.0 0.0 0.00 0.00 0.00 34 1012.9
20260503233521 14 305 1.6 3.2 0.00 0.00 0.00 34 1012.5
20260503233017 15 295 1.6 1.6 0.00 0.00 0.00 34 1012.9
20260503232514 15 324 1.6 1.6 0.00 0.00 0.00 33 1012.5
20260503232012 15 324 1.6 3.2 0.00 0.00 0.00 32 1012.6
20260503231510 15 311 4.8 4.8 0.00 0.00 0.00 31 1012.8
20260503231006 15 282 4.8 8.0 0.00 0.00 0.00 30 1012.8
20260503230503 16 218 6.4 12.9 0.00 0.00 0.00 30 1012.6
20260503230000 16 335 3.2 4.8 0.00 0.00 0.00 31 1012.8
20260503225457 16 21 1.6 3.2 0.00 0.00 0.00 29 1012.8
20260503224952 16 15 3.2 3.2 0.00 0.00 0.00 30 1012.8
20260503224449 16 243 6.4 8.0 0.00 0.00 0.00 29 1012.6
20260503223947 16 345 3.2 3.2 0.00 0.00 0.00 29 1012.5
20260503223445 16 32 4.8 8.0 0.00 0.00 0.00 29 1012.6
20260503222940 16 332 1.6 3.2 0.00 0.00 0.00 29 1012.6
20260503222439 16 280 6.4 9.7 0.00 0.00 0.00 29 1012.6
20260503221937 16 10 9.7 12.9 0.00 0.00 0.00 28 1012.6
20260503221435 16 312 3.2 4.8 0.00 0.00 0.00 29 1012.6
20260503220931 17 293 3.2 3.2 0.00 0.00 0.00 27 1012.6
20260503220428 16 336 3.2 4.8 0.00 0.00 0.00 29 1012.9
20260503215925 16 337 6.4 9.7 0.00 0.00 0.00 28 1012.6
20260503215422 16 341 4.8 4.8 0.00 0.00 0.00 29 1012.6
20260503214920 16 30 3.2 8.0 0.00 0.00 0.00 28 1012.8
20260503214417 16 105 6.4 8.0 0.00 0.00 0.00 28 1012.6
20260503213914 16 312 4.8 8.0 0.00 0.00 0.00 29 1012.6
20260503213412 16 128 6.4 8.0 0.00 0.00 0.00 29 1012.6
20260503212908 16 338 6.4 8.0 0.00 0.00 0.00 28 1012.6
20260503212406 17 277 4.8 8.0 0.00 0.00 0.00 29 1012.6
20260503211903 16 312 0.0 1.6 0.00 0.00 0.00 29 1012.5
20260503211400 16 223 6.4 9.7 0.00 0.00 0.00 27 1012.5
20260503210855 16 302 0.0 0.0 0.00 0.00 0.00 30 1012.6
20260503210353 16 305 4.8 11.3 0.00 0.00 0.00 28 1012.6
20260503205847 16 310 11.3 17.7 0.00 0.00 0.00 28 1013.0
20260503205344 16 13 3.2 4.8 0.00 0.00 0.00 28 1012.8
20260503204840 16 85 4.8 8.0 0.00 0.00 0.00 28 1012.9
20260503204338 17 19 3.2 3.2 0.00 0.00 0.00 28 1012.8
20260503203835 16 326 1.6 3.2 0.00 0.00 0.00 29 1012.8
20260503203333 16 355 4.8 8.0 0.00 0.00 0.00 29 1013.0
20260503202829 16 311 1.6 3.2 0.00 0.00 0.00 30 1012.9
20260503202327 16 359 6.4 9.7 0.00 0.00 0.00 30 1013.0
20260503201826 16 301 1.6 1.6 0.00 0.00 0.00 32 1013.0
20260503201322 16 290 9.7 14.5 0.00 0.00 0.00 30 1013.0
20260503200820 15 290 4.8 4.8 0.00 0.00 0.00 31 1013.0
20260503200315 15 280 3.2 4.8 0.00 0.00 0.00 30 1013.2
20260503195813 15 313 4.8 8.0 0.00 0.00 0.00 31 1013.4
20260503195309 15 330 9.7 11.3 0.00 0.00 0.00 32 1013.5
20260503194807 15 259 4.8 11.3 0.00 0.00 0.00 32 1013.5
20260503194302 15 349 4.8 4.8 0.00 0.00 0.00 33 1013.4
20260503193759 15 26 11.3 12.9 0.00 0.00 0.00 31 1013.3
20260503193255 15 245 4.8 8.0 0.00 0.00 0.00 32 1013.6
20260503192751 16 311 6.4 9.7 0.00 0.00 0.00 31 1013.6
20260503192246 15 62 3.2 4.8 0.00 0.00 0.00 34 1013.5
20260503191743 15 54 9.7 11.3 0.00 0.00 0.00 32 1013.7
20260503191240 15 43 8.0 11.3 0.00 0.00 0.00 33 1013.7
20260503190737 15 4 6.4 16.1 0.00 0.00 0.00 31 1013.8
20260503190234 15 296 1.6 1.6 0.00 0.00 0.00 34 1013.7
20260503185731 14 338 3.2 3.2 0.00 0.00 0.00 32 1013.9
20260503185226 15 333 1.6 3.2 0.00 0.00 0.00 33 1013.8
20260503184721 14 33 9.7 12.9 0.00 0.00 0.00 32 1013.9
20260503184218 14 24 6.4 8.0 0.00 0.00 0.00 34 1014.0
20260503183714 14 299 8.0 12.9 0.00 0.00 0.00 32 1014.3
20260503183212 14 337 4.8 4.8 0.00 0.00 0.00 33 1014.2
20260503182710 14 272 6.4 12.9 0.00 0.00 0.00 33 1014.1
20260503182208 13 45 4.8 12.9 0.00 0.00 0.00 34 1014.2
20260503181704 13 318 0.0 1.6 0.00 0.00 0.00 33 1014.4
20260503181201 13 3 8.0 11.3 0.00 0.00 0.00 33 1014.4
20260503180658 13 245 4.8 8.0 0.00 0.00 0.00 32 1014.5
20260503180156 13 47 8.0 11.3 0.00 0.00 0.00 33 1014.4
20260503175653 13 19 4.8 4.8 0.00 0.00 0.00 34 1014.5
20260503175150 13 28 4.8 8.0 0.00 0.00 0.00 37 1014.4
20260503174646 12 326 4.8 4.8 0.00 0.00 0.00 34 1014.4
20260503174144 12 336 8.0 9.7 0.00 0.00 0.00 34 1014.4
20260503173639 13 346 8.0 12.9 0.00 0.00 0.00 33 1014.6
20260503173135 13 28 4.8 8.0 0.00 0.00 0.00 34 1014.4
20260503172632 13 4 9.7 11.3 0.00 0.00 0.00 35 1014.5
20260503172130 13 313 6.4 11.3 0.00 0.00 0.00 33 1014.6
20260503171626 12 7 9.7 17.7 0.00 0.00 0.00 34 1014.8
20260503171123 13 316 4.8 8.0 0.00 0.00 0.00 35 1014.5
20260503170621 12 302 1.6 1.6 0.00 0.00 0.00 38 1014.7
20260503170117 12 19 4.8 9.7 0.00 0.00 0.00 36 1014.6
20260503151012 10 319 3.2 4.8 0.00 0.00 0.00 42 1015.2
20260503150509 10 246 3.2 4.8 0.00 0.00 0.00 42 1015.3
20260503131402 8 51 4.8 4.8 0.00 0.00 0.00 53 1015.4
20260503130859 7 45 8.0 11.3 0.00 0.00 0.00 53 1015.3
20260503130356 8 45 8.0 11.3 0.00 0.00 0.00 53 1015.4
20260503110755 5 302 0.0 1.6 0.00 0.00 0.00 65 1014.5
20260503110252 4 323 0.0 1.6 0.00 0.00 0.00 66 1014.3
20260503100219 5 307 4.8 4.8 0.00 0.00 0.00 67 1013.4
20260503090138 5 297 0.0 1.6 0.00 0.00 0.00 69 1012.9
20260503081608 5 338 1.6 1.6 0.00 0.00 0.00 68 1012.4
20260503081105 5 303 0.0 1.6 0.00 0.00 0.00 68 1012.5
20260503080601 5 348 3.2 4.8 0.00 0.00 0.00 68 1012.3
20260503072540 5 9 3.2 4.8 0.00 0.00 0.00 68 1011.8
20260503072037 6 0 1.6 1.6 0.00 0.00 0.00 68 1011.8
20260503071534 6 326 3.2 3.2 0.00 0.00 0.00 68 1011.9
20260503071030 5 15 3.2 4.8 0.00 0.00 0.00 69 1011.9
20260503070527 6 357 3.2 4.8 0.00 0.00 0.00 69 1011.9
20260503054945 6 345 1.6 3.2 0.00 0.00 0.00 71 1012.0
20260503054442 6 285 1.6 3.2 0.00 0.00 0.00 71 1012.1
20260503053939 6 344 3.2 3.2 0.00 0.00 0.00 70 1011.9